Location: ??????
(41.3164°N, 22.6615°E)
Time: 03:04:54
(UTC+00:00)

UWE-3 - Pass Details

Date: 06 July 2022
Orbit: 583 x 677 km, 97.7° (Epoch: 11 August)

Event Time Altitude Azimuth Distance (km) Brightness Sun altitude
Rises 02:18:37 0° 6° (N) 2,920 ? -7.6°
Reaches altitude 10° 02:20:50 10° 1° (N) 2,024 ? -7.2°
Maximum altitude 02:25:06 50° 287° (WNW) 823 ? -6.6°
Drops below altitude 10° 02:29:27 10° 212° (SSW) 2,063 ? -6.0°
Enters shadow 02:30:37 - 209° (SSW) 2,532 ? -5.8°
